EHI
4 12 22 19 11 9 12 15 17 17 17 15 13 11 8 6 4 2 2 3 2 1 0 0 0 0 0 0 0 0 0 0 0 0 0 0 0 0 0 0 0 0 0
7 14 22 22 15 12 13 15 17 18 16 14 13 10 8 6 4 3 3 2 2 1 1 0 0 0 0 0 0 0 0 0 0 0 0 0 0 0 0 0 0 0 0
10 15 22 24 20 16 15 15 16 16 14 12 11 9 7 4 3 3 3 2 2 2 1 1 0 0 0 0 0 0 0 0 0 0 0 0 0 0 0 0 0 0 0
12 16 21 25 23 19 16 14 14 13 11 9 9 8 5 3 1 1 2 2 2 1 1 1 1 0 0 0 0 0 0 0 0 0 0 0 0 0 0 0 0 0 0
12 15 20 25 25 20 14 12 11 10 8 6 6 6 4 2 1 0 1 1 1 0 0 1 1 0 0 0 0 0 0 0 0 0 0 0 0 0 0 0 0 0 0
14 15 19 25 27 21 13 9 9 9 7 5 4 5 4 3 1 0 0 0 0 0 0 0 0 0 0 0 0 0 0 0 0 0 0 0 0 0 0 0 0 0 0
17 16 18 25 27 22 14 9 9 9 7 4 3 3 3 3 2 1 1 0 0 0 0 0 0 0 0 0 0 0 0 0 0 0 0 0 0 0 0 0 0 0 0
19 17 17 22 25 21 14 11 10 9 7 5 3 2 3 3 3 2 1 0 0 0 0 0 0 0 0 0 0 0 0 0 0 0 0 0 0 0 0 0 0 0 0
17 16 16 17 18 15 12 10 8 7 6 5 2 1 2 2 3 2 1 0 0 0 0 0 0 0 0 0 0 0 0 0 0 0 0 0 0 0 0 0 0 0 0
14 14 13 11 9 7 6 5 5 5 5 4 1 0 1 1 1 1 1 0 0 0 0 0 0 0 0 0 0 0 0 0 0 0 0 0 0 0 0 0 0 0 0
9 9 7 6 4 2 1 2 3 4 4 3 1 0 0 0 0 0 0 0 0 0 0 0 0 0 0 0 0 0 0 0 0 0 0 0 0 0 0 0 0 0 0
4 4 4 3 2 1 0 1 2 2 2 2 1 0 0 0 0 0 0 0 0 0 0 0 0 0 0 0 0 0 0 0 0 0 0 0 0 0 0 0 0 0 0
3 3 3 3 2 1 0 1 2 1 1 2 2 1 1 1 0 0 0 0 0 0 0 0 0 0 0 0 0 0 0 0 0 0 0 0 0 0 0 0 0 0 0
3 3 3 2 1 0 0 1 1 0 1 2 3 3 2 2 1 0 0 0 0 0 0 0 0 0 0 0 0 0 0 0 0 0 0 0 0 0 0 0 0 0 0
1 2 2 1 0 0 0 0 0 0 1 2 3 3 3 2 1 1 0 0 0 0 0 0 0 0 0 0 0 0 0 0 0 0 0 0 0 0 0 0 0 0 0
0 1 1 0 0 0 0 0 0 0 1 2 3 3 3 2 1 0 0 0 0 0 0 0 0 0 0 0 0 0 0 0 0 0 0 0 0 0 0 0 0 0 0
0 0 0 0 0 0 0 0 0 0 1 2 3 3 3 2 1 0 0 0 0 0 0 0 0 0 0 0 0 0 0 0 0 0 0 0 0 0 0 0 0 0 0
0 0 0 0 0 0 0 0 0 0 1 2 3 2 1 1 0 0 0 0 0 0 0 0 0 0 0 0 0 0 0 0 0 0 0 0 0 0 0 0 0 0 0
0 0 0 0 0 0 0 0 0 0 1 2 2 1 0 0 0 0 0 0 0 0 0 0 0 0 0 0 0 0 0 0 0 0 0 0 0 0 0 0 0 0 0
0 0 0 0 0 0 0 0 0 0 0 1 1 0 0 0 0 0 0 0 0 0 0 0 0 0 0 0 0 0 0 0 0 0 0 0 0 0 0 0 0 0 0
0 0 0 0 0 0 0 0 0 0 0 0 0 0 0 0 0 0 0 0 0 0 0 0 0 0 0 0 0 0 0 0 0 0 0 0 0 0 0 0 0 0 0
0 0 0 0 0 0 0 0 0 0 0 0 0 0 0 0 0 0 0 0 0 0 0 0 0 0 0 0 0 0 0 0 0 0 0 0 0 0 0 0 0 0 0
0 0 0 0 0 0 0 0 0 0 0 0 0 0 0 0 0 0 0 0 0 0 0 0 0 0 0 0 0 0 0 0 0 0 0 0 0 0 0 0 0 0 0
0 0 0 0 0 0 0 0 0 0 0 0 0 0 0 0 0 0 0 0 0 0 0 0 0 0 0 0 0 0 0 0 0 0 0 0 0 0 0 0 0 0 0
0 0 0 0 0 0 0 0 0 0 0 0 0 0 0 0 0 0 0 0 0 0 0 0 0 0 0 0 0 0 0 0 0 0 0 0 0 0 0 0 0 0 0
0 0 0 0 0 0 0 0 0 0 0 0 0 0 0 0 0 0 0 0 0 0 0 0 0 0 0 0 0 0 0 0 0 0 0 0 0 0 0 0 0 0 0
Wind_Speed
3 4 7 7 9 9 10 10 11 11 10 11 11 11 10 10 10 9 9 9 8 8 8 9 9 9 9 9 9 9 9 10 10 10 9 8 8 8 8 8 8 5 9
4 5 8 8 9 9 10 10 10 11 10 10 11 10 10 10 9 9 9 8 8 8 8 8 8 8 9 8 8 8 9 9 10 10 9 7 6 7 7 6 6 4 7
4 5 7 8 9 9 9 10 10 10 10 10 10 10 9 9 9 8 8 8 8 8 8 8 8 8 8 8 8 8 9 9 9 9 8 4 4 6 6 6 5 6 6
4 5 6 9 10 9 9 10 10 10 10 10 9 9 9 9 8 8 8 7 7 7 8 8 8 8 8 8 8 8 8 9 8 8 4 3 3 5 5 6 6 5 5
3 3 6 10 10 10 9 9 10 10 10 10 9 9 9 8 8 8 7 7 7 7 8 8 8 8 7 8 8 8 8 8 8 6 3 3 3 5 6 6 6 6 5
2 2 6 10 10 10 9 9 9 9 9 9 9 8 8 8 8 8 7 7 7 7 7 7 7 8 7 7 7 7 8 8 7 4 3 3 3 5 6 7 6 5 5
2 2 4 9 10 10 9 8 9 9 9 9 9 8 8 8 8 8 7 7 7 7 7 7 7 7 7 7 7 7 7 8 5 4 3 3 3 6 7 7 7 6 6
3 2 3 8 9 9 9 8 8 9 8 8 8 8 8 7 7 7 7 7 6 6 7 7 7 7 7 8 8 8 8 7 5 4 3 2 4 6 7 7 7 7 7
3 2 2 3 5 7 8 8 7 8 8 8 7 7 7 7 7 7 7 6 6 6 6 6 6 7 7 8 8 8 8 8 4 2 3 2 4 6 6 6 7 7 8
3 3 3 3 4 4 4 7 7 7 8 7 7 7 7 7 7 7 6 6 6 6 6 6 7 7 8 8 9 8 8 6 3 3 2 2 6 7 7 7 7 8 8
2 2 3 3 4 4 4 5 6 6 7 7 6 7 6 3 3 4 5 6 6 6 6 6 7 8 8 8 9 9 7 3 3 2 2 4 6 6 7 7 7 7 7
3 3 3 4 4 4 4 3 3 3 3 4 3 3 3 3 3 4 5 6 6 6 6 7 7 7 6 4 5 7 3 3 3 2 3 6 6 6 7 7 8 8 8
4 3 3 4 3 3 3 3 2 2 2 3 3 3 3 3 2 2 2 2 3 4 3 4 5 3 3 3 3 3 3 3 2 2 4 6 6 7 7 8 8 8 8
4 3 3 3 3 2 3 3 2 2 2 2 2 3 3 2 2 2 2 2 2 2 2 3 2 3 4 3 4 4 4 3 2 2 4 8 7 7 8 8 8 9 9
4 3 3 3 3 2 3 2 2 2 2 2 2 2 3 2 2 2 1 1 2 2 2 2 3 3 3 3 3 4 3 3 3 3 3 7 8 7 7 8 8 8 8
5 4 3 3 3 4 3 3 2 2 2 3 2 2 2 2 2 2 2 1 1 1 2 2 3 3 2 2 3 3 3 3 3 3 3 4 8 9 8 8 8 8 7
5 5 4 4 4 4 4 3 2 2 2 3 2 2 2 2 2 2 2 1 1 1 2 3 3 2 2 2 3 3 2 2 3 3 3 3 4 7 8 8 8 8 7
4 5 4 4 4 4 3 3 2 2 2 2 2 2 2 2 2 2 2 1 1 1 2 2 2 2 2 2 2 2 2 2 2 3 3 3 3 3 5 9 8 8 8
4 5 5 5 4 4 3 3 3 2 2 2 2 2 2 2 2 2 2 1 1 2 2 2 2 2 2 2 2 2 2 2 2 2 3 3 3 3 3 6 8 9 8
3 4 5 5 4 4 3 3 2 3 1 1 2 2 2 1 2 2 2 2 2 2 1 2 3 2 2 2 2 2 2 1 1 2 2 2 2 3 3 3 4 5 8
3 3 4 4 4 4 2 2 2 1 1 1 1 2 2 2 2 2 2 2 2 1 2 2 2 3 2 1 2 2 2 2 1 1 1 1 2 2 2 2 2 2 3
4 4 4 4 4 4 3 2 2 2 1 0 0 1 2 2 2 2 2 2 2 2 2 2 2 2 1 1 2 2 1 2 1 1 1 1 1 1 1 2 1 1 1
3 4 4 4 4 4 4 3 2 2 2 1 0 0 1 2 2 2 2 2 2 2 2 2 2 2 2 1 1 3 2 2 2 2 1 0 0 0 1 1 1 1 1
3 3 3 4 4 4 5 4 4 2 2 2 1 1 1 1 2 2 2 2 2 2 2 2 2 1 3 2 1 1 1 2 2 1 2 1 1 1 1 1 1 1 1
2 2 2 3 3 3 4 5 4 3 1 1 1 1 1 1 1 1 1 2 2 2 2 2 2 2 2 2 2 1 1 1 1 2 2 2 2 2 1 2 1 1 1
2 2 2 3 3 3 4 4 4 4 3 2 1 2 1 0 0 1 1 2 2 2 2 2 2 2 2 2 2 2 2 2 2 2 2 2 2 2 2 1 1 1 1
Wind_Direction
184 178 172 155 151 146 144 138 130 124 120 118 116 114 113 109 105 101 98 95 90 88 89 87 84 83 82 81 79 74 71 68 65 64 64 66 69 72 72 68 64 53 63
168 173 169 156 149 146 145 140 133 128 122 120 118 116 114 111 107 101 97 95 92 89 91 89 86 86 83 80 78 76 73 69 66 64 59 55 60 69 72 73 69 65 64
150 165 166 158 144 141 142 141 136 130 125 121 118 118 116 112 109 104 100 96 94 88 87 88 87 86 84 83 81 78 75 71 66 62 56 42 50 69 70 71 74 68 67
153 160 164 155 145 139 138 139 138 133 129 125 119 116 114 112 109 106 104 100 96 90 86 84 85 86 84 85 83 80 77 70 63 56 48 36 33 60 66 67 68 67 62
143 156 164 152 146 139 136 136 136 137 133 128 123 118 115 112 110 104 100 98 94 91 88 86 85 86 86 88 86 81 75 70 62 52 43 33 21 52 65 64 62 59 57
112 138 163 152 147 141 134 137 138 134 134 130 126 124 119 115 111 106 101 98 96 93 91 89 87 84 84 86 84 78 73 70 63 49 42 26 12 45 63 63 59 56 59
125 122 155 153 146 141 138 136 138 133 128 130 129 125 121 115 113 107 100 98 98 98 95 92 87 84 81 82 80 76 73 70 65 51 39 16 10 53 65 61 56 54 54
141 131 142 149 142 138 135 134 134 130 127 122 124 125 120 113 109 106 100 98 96 97 96 92 89 85 84 78 76 76 75 71 65 50 36 6 15 52 59 57 55 59 60
124 107 107 132 136 135 130 129 127 129 126 121 117 118 115 111 109 104 101 99 98 98 95 92 90 87 83 78 76 76 74 69 63 45 34 3 24 52 58 61 62 61 59
116 110 100 103 107 112 119 123 118 122 121 115 110 106 105 105 104 98 95 99 97 95 92 91 91 90 81 79 77 77 73 66 54 41 17 17 42 54 60 63 63 63 61
129 113 100 99 105 106 109 109 104 109 111 107 104 100 97 93 92 88 87 92 90 91 90 92 92 90 83 77 77 78 73 62 57 38 13 34 48 56 59 60 61 63 62
167 129 105 98 107 107 103 93 83 86 97 98 98 97 95 93 90 90 81 82 84 82 83 85 87 85 78 68 70 71 65 61 55 36 27 35 48 57 58 59 62 63 62
173 135 112 107 94 100 106 104 95 94 98 98 102 103 100 90 85 80 80 71 70 74 70 69 70 66 72 76 75 68 65 62 49 33 28 38 48 56 57 60 61 62 60
160 137 116 109 106 92 97 101 106 105 106 107 109 113 110 107 94 92 90 83 76 74 78 73 76 71 73 74 81 77 67 62 52 36 33 42 47 55 55 55 60 61 60
160 146 132 126 126 125 110 102 97 99 118 120 114 116 122 123 122 104 93 86 81 82 88 87 86 84 77 72 75 81 72 63 57 48 31 45 50 52 54 56 57 59 57
165 153 136 140 143 135 125 105 100 106 125 113 107 112 119 124 129 119 95 88 87 92 98 99 96 93 83 79 74 74 73 65 59 52 41 39 48 52 52 51 52 52 51
164 148 149 146 135 128 122 119 104 117 129 118 117 114 116 121 126 126 110 93 94 101 101 97 85 81 82 76 71 72 71 68 69 60 53 44 37 43 48 47 46 45 45
157 148 152 151 137 130 123 118 113 118 132 126 123 117 116 120 124 119 116 99 91 106 109 108 100 88 74 73 72 63 65 70 74 71 63 53 42 39 39 44 40 40 42
167 153 152 143 140 128 119 108 99 86 114 126 115 114 120 119 121 120 123 118 107 105 111 119 100 100 90 74 80 69 59 65 66 76 68 61 52 49 41 38 36 37 38
150 147 144 137 135 125 114 98 85 68 62 93 110 120 126 129 135 127 116 114 108 105 109 124 115 88 97 95 80 60 42 52 63 69 67 64 58 57 51 42 30 24 33
135 143 146 142 141 138 134 134 124 105 61 58 103 117 125 125 128 126 121 115 113 111 125 126 123 106 81 83 83 45 17 30 61 66 64 72 49 47 51 45 32 27 15
164 160 156 156 156 159 153 136 124 124 108 142 105 104 125 128 140 135 130 131 128 113 110 98 113 124 92 77 113 109 19 346 349 20 41 83 50 33 28 23 25 22 17
177 177 172 164 159 159 141 116 97 79 67 57 332 141 142 140 138 130 141 141 136 131 134 127 131 136 143 92 89 130 144 222 297 316 320 3 6 18 326 335 346 345 353
197 183 168 163 157 159 153 151 153 155 179 214 210 189 128 129 135 149 165 153 147 147 148 157 148 143 147 153 112 81 134 156 168 303 310 315 315 286 294 308 303 298 299
175 169 162 156 158 162 163 165 159 159 180 180 154 151 141 110 128 157 171 165 158 157 163 164 140 147 154 160 159 145 110 95 134 166 266 306 325 293 281 275 265 271 280
145 153 155 160 169 173 170 169 172 173 165 159 190 186 183 170 176 182 175 176 169 162 176 181 163 167 160 151 156 165 165 165 176 166 218 270 296 296 301 290 267 265 262